Weather History for Daytona Beach, FL

Change the Weather History Date:

Friday, January 4, 2013

  Actual Average Record
Temperature  
Mean Temperature 58 °F 58 °F  
Max Temperature 61 °F 68 °F 84 °F (1973)
Min Temperature 54 °F 47 °F 26 °F (1928)
Degree Days  
Heating Degree Days 7 8  
Month to date heating degree days 11 32  
Since 1 July heating degree days 264 298  
Cooling Degree Days 0 1  
Month to date cooling degree days 1 4  
Year to date cooling degree days 1 4  
Growing Degree Days 7 (Base 50)    
Moisture  
Dew Point 55 °F    
Average Humidity 95    
Maximum Humidity 100    
Minimum Humidity 90    
Precipitation  
Precipitation 0.10 in 0.09 in 0.63 in (1969)
Month to date precipitation 0.16 0.35  
Year to date precipitation 0.16 0.35  
Sea Level Pressure  
Sea Level Pressure 30.24 in    
Wind  
Wind Speed 9 mph (NNW)    
Max Wind Speed 15 mph    
Max Gust Speed 21 mph    
Visibility 6 miles    
Events Rain    
T = Trace of Precipitation, MM = Missing Value Source: NWS Daily Summary

Daily Weather History Graph

Daily Weather History Graph

Search for Another Location

Airport:

Trip Planner

Search our weather history database for the weather conditions in past years. The results will help you decide how hot, cold, wet, or windy it might be!

Date:

Astronomy

Jan. 04, 2013 Rise Set
Actual Time 7:18 AM EST 5:39 PM EST
Civil Twilight 6:53 AM EST 6:05 PM EST
Nautical Twilight 6:23 AM EST 6:35 PM EST
Astronomical Twilight 5:54 AM EST 7:04 PM EST
Moon No Moon Rise 11:36 AM EST (1/4)
Length of Visible Light 11h 12m
Length of Day
10h 20m
Waning Gibbous, 55% of the Moon is Illuminated
Jan 4
Waning Gibbous
Jan 4
Last Quarter
Jan 11
New
Jan 18
First Quarter
Jan 26
Full

Hourly Weather History & Observations

Time (EST) Temp. Dew Point Humidity Pressure Visibility Wind Dir Wind Speed Gust Speed Precip Events Conditions
12:53 AM 54.0 °F 53.1 °F 97% 30.19 in 6.0 mi NW 8.1 mph - 0.00 in   Overcast
1:34 AM 53.6 °F 53.6 °F 100% 30.20 in 6.0 mi NNW 8.1 mph - 0.00 in   Light Drizzle
1:53 AM 54.0 °F 53.1 °F 97% 30.19 in 6.0 mi NW 8.1 mph - 0.00 in   Light Drizzle
2:36 AM 55.4 °F 53.6 °F 94% 30.19 in 5.0 mi NNW 8.1 mph - 0.00 in Rain Light Rain
2:53 AM 55.0 °F 54.0 °F 96% 30.19 in 4.0 mi North 8.1 mph - 0.00 in Rain Light Rain
3:53 AM 57.0 °F 55.9 °F 96% 30.19 in 4.0 mi North 10.4 mph - 0.02 in Rain Light Rain
4:53 AM 55.0 °F 54.0 °F 96% 30.20 in 3.0 mi North 8.1 mph - 0.03 in Rain Rain
5:53 AM 55.0 °F 53.1 °F 93% 30.22 in 3.0 mi North 9.2 mph - 0.01 in Rain Light Rain
6:53 AM 55.0 °F 54.0 °F 96% 30.23 in 4.0 mi North 9.2 mph - 0.00 in   Overcast
7:40 AM 55.4 °F 55.4 °F 100% 30.24 in 2.0 mi NNW 8.1 mph - 0.01 in   Overcast
7:53 AM 55.9 °F 55.0 °F 97% 30.25 in 2.0 mi North 9.2 mph - 0.01 in   Overcast
8:53 AM 57.9 °F 55.9 °F 93% 30.26 in 3.0 mi North 6.9 mph - 0.01 in Rain Light Rain
9:53 AM 57.9 °F 57.0 °F 97% 30.27 in 4.0 mi North 5.8 mph - 0.01 in   Overcast
10:53 AM 59.0 °F 57.0 °F 93% 30.26 in 5.0 mi North 10.4 mph - N/A   Overcast
11:53 AM 59.0 °F 57.0 °F 93% 30.25 in 9.0 mi NNW 9.2 mph - N/A   Overcast
12:53 PM 60.1 °F 57.0 °F 90% 30.23 in 10.0 mi North 9.2 mph - N/A   Overcast
1:53 PM 61.0 °F 57.9 °F 90% 30.21 in 7.0 mi North 8.1 mph - N/A   Overcast
2:53 PM 60.1 °F 57.9 °F 93% 30.21 in 6.0 mi NNW 6.9 mph - N/A   Overcast
3:53 PM 60.1 °F 57.0 °F 90% 30.22 in 7.0 mi North 12.7 mph 17.3 mph N/A   Overcast
4:53 PM 57.0 °F 55.9 °F 96% 30.24 in 4.0 mi NNW 11.5 mph - 0.00 in Rain Light Rain
5:53 PM 57.0 °F 55.0 °F 93% 30.25 in 6.0 mi North 11.5 mph 20.7 mph 0.00 in Rain Light Rain
6:53 PM 55.9 °F 54.0 °F 93% 30.27 in 8.0 mi North 10.4 mph - 0.00 in   Overcast
7:53 PM 55.9 °F 54.0 °F 93% 30.28 in 7.0 mi North 6.9 mph - 0.00 in Rain Light Rain
8:15 PM 55.4 °F 53.6 °F 94% 30.29 in 8.0 mi North 9.2 mph - 0.00 in   Mostly Cloudy
8:53 PM 55.9 °F 53.1 °F 90% 30.29 in 9.0 mi NNW 3.5 mph - 0.00 in   Overcast
9:28 PM 55.4 °F 53.6 °F 94% 30.30 in 9.0 mi North 8.1 mph - 0.00 in   Overcast
9:53 PM 55.9 °F 53.1 °F 90% 30.30 in 5.0 mi NNW 8.1 mph - 0.00 in Rain Light Rain
10:25 PM 55.4 °F 53.6 °F 94% 30.30 in 6.0 mi North 5.8 mph - 0.01 in   Overcast
10:53 PM 55.9 °F 53.1 °F 90% 30.29 in 9.0 mi North 8.1 mph - 0.01 in   Overcast
11:53 PM 55.9 °F 52.0 °F 87% 30.30 in 10.0 mi North 9.2 mph - N/A   Overcast